McConnell AFB, KS

3:44 AM CST on December 10, 2016 (GMT -0600)
McConnell Air Force Base

Weather History for KIAB - August, 2013

Change the Weather History Date:

Wednesday, August 7, 2013

  Actual Average Record
Temperature  
Mean Temperature 80 °F -  
Max Temperature 88 °F 87 °F 104 °F (2000)
Min Temperature 72 °F 67 °F 59 °F (1997)
Cooling Degree Days 15    
Growing Degree Days 30 (Base 50)    
Moisture  
Dew Point 74 °F    
Average Humidity 87    
Maximum Humidity 100    
Minimum Humidity 58    
Precipitation  
Precipitation 0.05 in - - ()
Sea Level Pressure  
Sea Level Pressure 29.88 in    
Wind  
Wind Speed 11 mph (ENE)    
Max Wind Speed 30 mph    
Max Gust Speed 36 mph    
Visibility 10 miles    
Events Rain , Thunderstorm    
Averages and records for this station are not official NWS values.
T = Trace of Precipitation, MM = Missing Value Source: NWS Daily Summary

Daily Weather History Graph

Daily Weather History Graph

Search for Another Location

Airport or City:

Trip Planner

Search our weather history database for the weather conditions in past years. The results will help you decide how hot, cold, wet, or windy it might be!

Date:

Astronomy

Aug. 07, 2013 Rise Set
Actual Time 6:38 AM CDT 8:30 PM CDT
Civil Twilight 6:09 AM CDT 8:59 PM CDT
Nautical Twilight 5:35 AM CDT 9:33 PM CDT
Astronomical Twilight 4:58 AM CDT 10:10 PM CDT
Moon 7:25 AM CDT (8/7) 8:41 PM CDT (8/7)
Length of Visible Light 14h 49m
Length of Day
13h 52m
New Moon, 1% of the Moon is Illuminated
Aug 7
New Moon
Aug 14
First Quarter
Aug 20
Full
Aug 28
Last Quarter
Sep 5
New

Hourly Weather History & Observations

Time (CDT) Temp. Heat Index Dew Point Humidity Pressure Visibility Wind Dir Wind Speed Gust Speed Precip Events Conditions
12:08 AM 82.4 °F 94.0 °F 80.6 °F 94% 29.90 in 10.0 mi WSW 16.1 mph 18.4 mph N/A Rain , Thunderstorm Light Rain
12:09 AM 82.4 °F 94.0 °F 80.6 °F 94% 29.91 in 10.0 mi West 21.9 mph 24.2 mph N/A Rain , Thunderstorm Light Rain
12:11 AM 82.4 °F 92.4 °F 78.8 °F 89% 29.91 in 10.0 mi West 29.9 mph 35.7 mph N/A Rain , Thunderstorm Light Thunderstorms and Rain
12:21 AM 73.4 °F - 71.6 °F 94% 29.92 in 10.0 mi WSW 10.4 mph 35.7 mph N/A Rain , Thunderstorm Light Thunderstorms and Rain
12:31 AM 73.4 °F - 71.6 °F 94% 29.91 in 10.0 mi West 10.4 mph 21.9 mph N/A Rain , Thunderstorm Light Thunderstorms and Rain
12:55 AM 73.4 °F - 73.4 °F 100% 29.90 in 10.0 mi WNW 4.6 mph - N/A Rain , Thunderstorm Light Rain
12:58 AM 72.9 °F - 72.9 °F 100% 29.87 in 10.0 mi Variable 3.5 mph - 0.01 in Rain , Thunderstorm Light Rain
1:04 AM 73.4 °F - 73.4 °F 100% 29.90 in 10.0 mi SSW 3.5 mph - N/A Rain , Thunderstorm Light Thunderstorms and Rain
1:23 AM 73.4 °F - 73.4 °F 100% 29.88 in 10.0 mi SE 2.3 mph - N/A Rain Light Rain
1:52 AM 73.4 °F - 73.4 °F 100% 29.86 in 10.0 mi East 5.8 mph - N/A   Partly Cloudy
1:54 AM 73.4 °F - 73.4 °F 100% 29.86 in 10.0 mi East 6.9 mph - N/A   Partly Cloudy
1:58 AM 73.4 °F - 73.4 °F 100% 29.82 in 10.0 mi East 6.9 mph - 0.04 in   Clear
2:58 AM 73.0 °F - 73.0 °F 100% 29.77 in 10.0 mi East 4.6 mph - N/A   Mostly Cloudy
3:58 AM 72.7 °F - 72.7 °F 100% 29.81 in 10.0 mi North 8.1 mph - N/A   Mostly Cloudy
4:58 AM 72.5 °F - 72.5 °F 100% 29.82 in 10.0 mi ESE 6.9 mph - N/A   Overcast
5:58 AM 72.3 °F - 72.3 °F 100% 29.84 in 10.0 mi ESE 8.1 mph - N/A   Mostly Cloudy
6:58 AM 72.1 °F - 72.1 °F 100% 29.86 in 10.0 mi East 2.3 mph - N/A   Mostly Cloudy
7:58 AM 75.0 °F - 72.0 °F 90% 29.86 in 10.0 mi NE 3.5 mph - N/A   Scattered Clouds
8:58 AM 75.9 °F - 73.9 °F 94% 29.90 in 10.0 mi North 2.3 mph - N/A   Partly Cloudy
9:58 AM 79.9 °F - 73.0 °F 80% 29.94 in 10.0 mi NE 4.6 mph - N/A   Clear
10:58 AM 81.0 °F 85.6 °F 72.9 °F 76% 29.91 in 10.0 mi East 8.1 mph - N/A   Clear
11:58 AM 82.9 °F 88.3 °F 72.1 °F 70% 29.91 in 10.0 mi NNE 6.9 mph - N/A   Scattered Clouds
12:58 PM 85.3 °F 92.6 °F 73.6 °F 68% 29.92 in 10.0 mi East 9.2 mph - N/A   Clear
2:56 PM 87.8 °F 93.8 °F 71.6 °F 58% 29.94 in 10.0 mi ENE 10.4 mph - N/A   Partly Cloudy
3:58 PM 88.5 °F 95.3 °F 72.0 °F 58% 29.90 in 10.0 mi ENE 8.1 mph - N/A   Clear
4:58 PM 88.0 °F 97.0 °F 74.5 °F 64% 29.90 in 10.0 mi ENE 9.2 mph - N/A   Clear
5:58 PM 85.5 °F 92.6 °F 73.2 °F 67% 29.89 in 10.0 mi East 6.9 mph - N/A   Clear
6:58 PM 86.2 °F 94.6 °F 74.3 °F 68% 29.87 in 10.0 mi ENE 9.2 mph - N/A   Clear
7:58 PM 83.5 °F 90.0 °F 73.6 °F 72% 29.88 in 10.0 mi ENE 8.1 mph - N/A   Clear
8:58 PM 80.6 °F 85.7 °F 74.3 °F 81% 29.90 in 10.0 mi ENE 10.4 mph - N/A   Partly Cloudy
9:58 PM 79.2 °F - 74.8 °F 87% 29.91 in 10.0 mi ENE 9.2 mph - N/A   Clear
10:58 PM 77.7 °F - 75.0 °F 91% 29.92 in 10.0 mi ENE 10.4 mph - N/A   Clear
11:58 PM 77.2 °F - 72.3 °F 85% 29.91 in 10.0 mi ENE 9.2 mph - N/A   Clear